Troy, MI

1:10 PM EST on January 19, 2018 (GMT -0500)
Troy

Weather History for KVLL - March, 2014

Change the Weather History Date:

Sunday, March 2, 2014

  Actual Average (KDET) Record (KDET)
Temperature  
Mean Temperature 12 °F -  
Max Temperature 16 °F 40 °F 60 °F (1991)
Min Temperature 7 °F 25 °F 3 °F (1962)
Degree Days  
Heating Degree Days 54    
Moisture  
Dew Point 2 °F    
Average Humidity 68    
Maximum Humidity 90    
Minimum Humidity 52    
Precipitation  
Precipitation 0.00 in - - ()
Sea Level Pressure  
Sea Level Pressure 30.31 in    
Wind  
Wind Speed 7 mph (NNE)    
Max Wind Speed 13 mph    
Max Gust Speed 18 mph    
Visibility 8 miles    
Events Snow    
Averages and records for this station are not official NWS values.
T = Trace of Precipitation, MM = Missing Value Source: NWS Daily Summary

Daily Weather History Graph

Daily Weather History Graph

Search for Another Location

Airport or City:

Trip Planner

Search our weather history database for the weather conditions in past years. The results will help you decide how hot, cold, wet, or windy it might be!

Date:

Astronomy

Mar. 02, 2014 Rise Set
Actual Time 7:06 AM EST 6:23 PM EST
Civil Twilight 6:38 AM EST 6:51 PM EST
Nautical Twilight 6:05 AM EST 7:24 PM EST
Astronomical Twilight 5:33 AM EST 7:57 PM EST
Moon 7:34 AM EST (3/2) 8:22 PM EST (3/2)
Length of Visible Light 12h 13m
Length of Day
11h 17m
Waxing Crescent, 3% of the Moon is Illuminated
Mar 2
Waxing Crescent
Mar 8
First Quarter
Mar 16
Full
Mar 23
Last Quarter
Mar 30
New

Hourly Weather History & Observations

Time (EST) Temp. Windchill Dew Point Humidity Pressure Visibility Wind Dir Wind Speed Gust Speed Precip Events Conditions
12:15 AM 16.3 °F 5.7 °F 13.8 °F 90% 30.27 in 1.2 mi North 8.1 mph - N/A Snow Light Snow
12:34 AM 15.8 °F 6.1 °F 13.1 °F 89% 30.28 in 1.5 mi NNE 6.9 mph - N/A Snow Light Snow
12:55 AM 15.6 °F 5.9 °F 12.7 °F 88% 30.27 in 1.5 mi NNE 6.9 mph - N/A Snow Light Snow
1:15 AM 15.4 °F 9.8 °F 12.6 °F 88% 30.27 in 1.5 mi NNE 3.5 mph - N/A Snow Light Snow
1:34 AM 15.3 °F 3.5 °F 11.8 °F 86% 30.27 in 2.5 mi NNE 9.2 mph - N/A Snow Light Snow
1:55 AM 14.9 °F 7.5 °F 11.1 °F 85% 30.27 in 2.5 mi NNE 4.6 mph - N/A Snow Light Snow
2:15 AM 14.7 °F 3.8 °F 11.1 °F 86% 30.28 in 1.5 mi NE 8.1 mph - N/A Snow Light Snow
2:34 AM 12.7 °F -1.8 °F 8.6 °F 84% 30.29 in 2.5 mi NE 12.7 mph 18.4 mph N/A Snow Light Snow
2:55 AM 12.0 °F -2.7 °F 7.7 °F 83% 30.29 in 3.0 mi NE 12.7 mph - N/A Snow Light Snow
3:15 AM 11.3 °F -1.3 °F 6.8 °F 82% 30.30 in 2.5 mi NNE 9.2 mph - N/A Snow Light Snow
3:34 AM 11.3 °F -2.9 °F 6.8 °F 82% 30.31 in 2.5 mi NE 11.5 mph - N/A Snow Light Snow
3:55 AM 10.9 °F -0.8 °F 6.8 °F 83% 30.31 in 2.0 mi NE 8.1 mph - N/A Snow Light Snow
4:15 AM 11.1 °F -0.6 °F 7.3 °F 85% 30.32 in 1.8 mi NNE 8.1 mph - N/A Snow Light Snow
4:34 AM 9.9 °F -5.5 °F 5.9 °F 84% 30.32 in 1.2 mi ENE 12.7 mph 16.1 mph N/A Snow Light Snow
4:55 AM 9.1 °F -5.6 °F 5.0 °F 83% 30.32 in 1.5 mi ENE 11.5 mph - N/A Snow Light Snow
5:14 AM 9.0 °F -3.2 °F 5.4 °F 85% 30.33 in 1.0 mi NNE 8.1 mph - N/A Snow Light Snow
5:35 AM 8.6 °F -4.7 °F 4.5 °F 83% 30.32 in 2.5 mi NE 9.2 mph - N/A Snow Light Snow
5:55 AM 8.4 °F -5.7 °F 4.1 °F 83% 30.33 in 2.0 mi NNE 10.4 mph 16.1 mph N/A Snow Light Snow
6:14 AM 8.2 °F -6.8 °F 3.6 °F 81% 30.32 in 2.0 mi NE 11.5 mph - N/A Snow Light Snow
6:35 AM 7.9 °F -5.5 °F 3.2 °F 81% 30.33 in 5.0 mi NNE 9.2 mph - N/A Snow Light Snow
6:55 AM 7.7 °F -3.7 °F 2.5 °F 79% 30.32 in 7.0 mi NNE 6.9 mph - N/A   Mostly Cloudy
7:14 AM 7.7 °F -7.4 °F 2.1 °F 78% 30.32 in 4.0 mi NE 11.5 mph - N/A   Haze
7:35 AM 7.7 °F -5.8 °F 1.6 °F 76% 30.33 in 10.0 mi NE 9.2 mph - N/A   Overcast
7:55 AM 7.7 °F -4.8 °F 1.4 °F 75% 30.34 in 10.0 mi ENE 8.1 mph - N/A   Overcast
8:14 AM 8.1 °F -3.2 °F 1.4 °F 74% 30.34 in 10.0 mi NE 6.9 mph - N/A   Overcast
8:35 AM 8.4 °F -2.8 °F 1.8 °F 74% 30.34 in 10.0 mi NE 6.9 mph - N/A   Overcast
8:55 AM 8.4 °F -0.1 °F 1.0 °F 72% 30.34 in 10.0 mi NNE 4.6 mph - N/A   Overcast
9:14 AM 8.6 °F -2.6 °F 1.0 °F 71% 30.35 in 10.0 mi NE 6.9 mph - N/A   Overcast
9:35 AM 8.6 °F -3.7 °F 1.2 °F 72% 30.34 in 10.0 mi NE 8.1 mph - N/A   Overcast
9:54 AM 9.5 °F -2.6 °F 1.4 °F 70% 30.34 in 10.0 mi ENE 8.1 mph - N/A   Overcast
10:15 AM 10.2 °F 0.6 °F 1.2 °F 67% 30.34 in 10.0 mi NNE 5.8 mph - N/A   Overcast
10:35 AM 10.4 °F -1.5 °F 0.9 °F 65% 30.33 in 10.0 mi NE 8.1 mph - N/A   Overcast
10:54 AM 10.6 °F 1.0 °F 0.7 °F 64% 30.32 in 10.0 mi ENE 5.8 mph - N/A   Overcast
11:15 AM 10.6 °F 2.5 °F 0.1 °F 63% 30.33 in 10.0 mi ENE 4.6 mph - N/A   Overcast
11:35 AM 11.5 °F 2.1 °F -0.0 °F 60% 30.32 in 10.0 mi East 5.8 mph - N/A   Overcast
11:54 AM 12.2 °F 6.1 °F 0.5 °F 60% 30.33 in 10.0 mi NNE 3.5 mph - N/A   Overcast
12:15 PM 12.7 °F 6.7 °F -0.0 °F 57% 30.32 in 10.0 mi ENE 3.5 mph - N/A   Overcast
12:34 PM 12.2 °F 4.3 °F -0.2 °F 58% 30.33 in 10.0 mi NE 4.6 mph - N/A   Mostly Cloudy
12:55 PM 13.3 °F 5.6 °F 0.5 °F 57% 30.32 in 10.0 mi NNE 4.6 mph - N/A   Clear
1:15 PM 13.8 °F 2.7 °F 0.9 °F 56% 30.32 in 10.0 mi NE 8.1 mph - N/A   Scattered Clouds
1:34 PM 14.9 °F 6.1 °F 1.6 °F 56% 30.31 in 10.0 mi NNE 5.8 mph - N/A   Scattered Clouds
1:55 PM 15.1 °F 9.4 °F 0.9 °F 53% 30.29 in 10.0 mi NE 3.5 mph - N/A   Scattered Clouds
2:14 PM 14.4 °F 6.9 °F 0.3 °F 54% 30.29 in 10.0 mi NE 4.6 mph - N/A   Mostly Cloudy
2:35 PM 16.2 °F 6.5 °F 1.9 °F 54% 30.28 in 10.0 mi NNE 6.9 mph - N/A   Mostly Cloudy
2:55 PM 16.2 °F - 1.4 °F 52% 30.28 in 10.0 mi Calm Calm - N/A   Scattered Clouds
3:14 PM 15.8 °F 7.2 °F 1.8 °F 54% 30.28 in 10.0 mi North 5.8 mph - N/A   Mostly Cloudy
3:35 PM 15.8 °F 8.6 °F 1.6 °F 54% 30.29 in 10.0 mi NE 4.6 mph - N/A   Mostly Cloudy
3:55 PM 15.8 °F 7.2 °F 1.0 °F 52% 30.29 in 10.0 mi ENE 5.8 mph - N/A   Mostly Cloudy
4:14 PM 14.9 °F 6.1 °F 1.0 °F 54% 30.27 in 10.0 mi East 5.8 mph - N/A   Mostly Cloudy
4:35 PM 15.1 °F 7.7 °F 1.4 °F 55% 30.27 in 10.0 mi NE 4.6 mph - N/A   Overcast
4:55 PM 14.9 °F 9.2 °F 1.0 °F 54% 30.27 in 10.0 mi East 3.5 mph - N/A   Overcast
5:14 PM 14.4 °F 6.9 °F 0.9 °F 55% 30.28 in 10.0 mi ENE 4.6 mph - N/A   Overcast
5:35 PM 13.6 °F 7.7 °F -0.2 °F 54% 30.28 in 10.0 mi East 3.5 mph - N/A   Overcast
5:55 PM 13.5 °F 7.5 °F 0.1 °F 55% 30.30 in 10.0 mi ENE 3.5 mph - N/A   Overcast
6:15 PM 13.1 °F 5.4 °F -0.2 °F 55% 30.30 in 10.0 mi ENE 4.6 mph - N/A   Overcast
6:34 PM 12.7 °F 6.7 °F 0.3 °F 58% 30.30 in 10.0 mi ENE 3.5 mph - N/A   Overcast
6:55 PM 12.2 °F 4.3 °F 0.1 °F 59% 30.30 in 10.0 mi NE 4.6 mph - N/A   Overcast
7:15 PM 12.0 °F - 0.1 °F 59% 30.29 in 10.0 mi Calm Calm - N/A   Overcast
7:34 PM 11.5 °F 5.3 °F -0.2 °F 59% 30.30 in 10.0 mi NNE 3.5 mph - N/A   Scattered Clouds
7:55 PM 10.6 °F - -0.2 °F 62% 30.31 in 10.0 mi Calm Calm - N/A   Clear
8:14 PM 9.9 °F 3.4 °F -0.4 °F 63% 30.31 in 10.0 mi North 3.5 mph - N/A   Clear
8:35 PM 10.6 °F -0.2 °F -0.8 °F 60% 30.32 in 10.0 mi NW 6.9 mph - N/A   Clear
8:55 PM 10.0 °F 1.8 °F -1.5 °F 60% 30.32 in 10.0 mi NNW 4.6 mph - N/A   Clear
9:14 PM 9.7 °F 3.2 °F -2.6 °F 58% 30.32 in 10.0 mi NNW 3.5 mph - N/A   Clear
9:35 PM 9.5 °F 3.0 °F -2.7 °F 58% 30.32 in 10.0 mi NW 3.5 mph - N/A   Clear
9:55 PM 9.5 °F 3.0 °F -2.6 °F 58% 30.33 in 10.0 mi NNW 3.5 mph - N/A   Clear
10:14 PM 8.4 °F 1.8 °F -3.1 °F 60% 30.32 in 10.0 mi NW 3.5 mph - N/A   Clear
10:35 PM 9.0 °F 2.4 °F -2.0 °F 61% 30.32 in 10.0 mi NW 3.5 mph - N/A   Clear
10:55 PM 8.4 °F 1.8 °F -1.7 °F 64% 30.33 in 10.0 mi WNW 3.5 mph - N/A   Clear
11:14 PM 8.2 °F -0.3 °F -1.8 °F 64% 30.33 in 10.0 mi WNW 4.6 mph - N/A   Clear
11:35 PM 7.9 °F -3.5 °F -2.6 °F 62% 30.35 in 10.0 mi West 6.9 mph - N/A   Clear
11:54 PM 8.1 °F -5.3 °F -2.7 °F 61% 30.35 in 10.0 mi WNW 9.2 mph - N/A   Clear